Theta_e
314 314 314 314 313 313 312 312 312 313 314 315 316 316 317 318 318 318 318 317 318 318 317 316 316 317 317 316 317 317 316 316 317 317 316 316 315 315 315 316 316 316 317 317 317 315 314 316 317 317 317 316 316 316 316 316 315 317 319 318 317 317 318 317 317 316 316 316 316 316 313 312 313 312 311 311 312 312 312 313 313 313 313 314 314 313 313 313
316 316 317 316 316 314 313 312 312 313 313 314 315 316 316 318 318 318 319 319 319 319 319 318 316 318 318 316 317 317 317 317 317 316 316 315 315 315 315 316 316 317 317 317 317 316 315 315 316 316 316 316 316 316 316 315 315 318 319 318 318 317 317 316 316 316 315 315 316 316 314 312 312 312 311 311 314 313 313 315 314 314 315 314 314 314 314 314
318 319 319 319 318 316 314 313 312 313 313 313 314 315 317 318 319 319 319 319 320 320 319 319 317 318 318 316 317 317 316 316 316 316 315 315 315 315 316 316 316 317 317 317 317 316 314 314 315 315 315 316 316 315 316 316 316 317 317 318 318 317 316 314 315 315 314 314 315 315 313 312 311 310 310 311 313 314 315 315 314 314 314 314 314 314 314 314
319 319 320 320 319 317 315 314 313 313 313 313 314 315 316 318 319 319 319 320 321 321 320 319 318 318 318 317 317 317 316 317 316 315 314 315 315 316 316 316 317 317 317 317 316 316 315 314 314 315 315 317 316 315 316 315 316 316 316 318 317 314 315 315 314 314 313 313 313 314 313 312 311 309 310 311 313 315 315 314 314 313 313 313 314 314 314 314
319 319 320 320 320 318 317 316 315 314 313 313 313 315 317 318 319 319 319 320 321 321 321 319 318 318 318 317 317 316 317 317 316 315 315 315 316 316 316 317 317 317 317 317 316 316 315 315 315 315 316 318 317 316 315 313 313 315 316 317 315 313 314 314 313 312 312 312 312 312 313 312 311 310 310 311 312 314 314 314 313 312 313 313 313 313 313 313
319 319 320 320 321 319 318 318 316 314 313 313 314 316 318 319 319 320 319 320 321 321 321 319 318 318 318 318 317 316 317 317 315 315 316 316 317 317 317 317 317 317 316 315 315 315 315 315 316 316 316 317 316 316 315 312 311 315 316 315 314 313 314 313 312 311 311 311 312 312 312 310 311 312 311 310 312 313 313 312 312 312 312 312 312 312 313 312
320 319 320 321 321 320 319 318 317 314 313 314 315 317 319 319 319 319 319 320 321 321 321 319 318 318 317 317 317 316 317 316 315 316 317 317 317 317 317 315 315 315 315 314 314 314 315 316 316 315 316 316 314 314 314 312 311 313 315 314 313 312 312 312 311 310 310 309 311 311 310 310 312 312 310 311 312 312 312 312 312 311 311 311 311 312 312 309
320 320 320 321 321 321 320 319 316 314 314 315 317 318 319 320 320 319 320 321 321 322 321 319 318 318 317 317 317 317 317 316 316 317 317 317 317 316 314 313 313 313 314 313 313 314 315 316 316 315 315 316 314 314 313 312 312 313 314 314 312 312 311 311 310 309 309 309 310 309 310 312 312 310 310 312 312 311 312 312 311 310 310 311 311 311 309 307
320 320 320 321 322 322 321 320 316 314 315 317 318 319 320 321 320 320 320 321 321 322 321 319 318 318 317 317 317 318 317 316 316 316 316 316 316 314 313 312 312 312 313 313 313 314 315 315 315 314 315 315 313 313 312 313 314 313 313 313 312 312 311 310 309 309 309 309 310 310 312 313 310 309 311 311 311 312 312 312 310 309 310 311 310 308 306 305
320 320 321 321 322 322 322 320 317 314 316 318 320 320 320 321 320 320 320 321 321 322 321 319 318 317 317 317 318 318 316 315 315 314 315 315 314 313 312 312 312 312 313 313 313 314 314 314 314 314 314 314 312 313 311 312 314 311 311 311 311 312 311 310 310 309 309 308 310 311 313 313 310 310 312 311 311 312 312 312 310 309 310 309 308 306 305 304
320 321 321 322 322 323 323 321 317 315 316 319 321 320 321 321 321 320 320 321 321 322 321 319 317 317 317 317 318 317 315 314 314 313 314 314 314 313 313 312 312 313 313 314 314 314 313 313 313 313 314 313 312 312 311 312 312 310 309 311 311 312 311 310 311 310 310 310 310 310 311 311 310 311 313 311 311 312 312 312 311 310 309 307 306 304 304 304
321 321 321 322 322 323 323 321 318 315 316 319 321 321 321 322 321 320 320 320 321 322 321 319 317 317 317 316 317 315 314 313 313 313 313 313 313 313 313 312 312 313 314 314 314 313 313 313 312 313 313 313 313 313 312 310 310 308 308 311 313 314 312 311 311 311 311 310 309 309 311 312 311 312 313 312 312 312 311 311 310 309 308 306 305 304 303 302
321 321 321 321 322 323 323 322 319 316 316 319 322 322 321 322 321 320 320 320 321 322 321 319 317 317 317 316 315 314 314 314 313 312 313 313 313 313 313 312 312 313 313 314 314 313 313 313 312 312 312 312 313 312 311 309 308 309 308 310 314 314 313 313 312 312 312 310 309 310 312 313 313 313 312 312 311 311 310 310 309 307 306 305 304 303 303 302
319 320 320 321 322 323 323 322 319 317 316 318 321 322 322 322 321 321 320 319 321 322 321 319 318 317 317 316 315 315 315 315 314 313 313 312 312 312 312 312 312 313 313 313 314 312 312 313 312 312 312 312 312 311 310 310 310 311 310 311 314 313 314 315 312 312 312 310 310 312 313 313 313 313 312 312 311 310 309 309 307 306 305 304 304 303 302 301
318 318 319 320 321 323 323 322 320 317 316 317 320 321 322 322 321 321 319 319 322 322 321 319 317 317 316 316 316 315 316 315 315 315 313 312 311 312 312 312 312 313 313 313 313 312 311 312 312 312 312 312 311 311 312 313 311 312 312 313 316 314 314 315 311 311 311 310 311 313 313 313 313 313 313 312 311 309 309 308 306 305 304 304 303 302 301 300
316 317 318 320 321 323 323 322 320 318 317 317 319 321 322 322 321 321 319 319 322 322 320 318 316 317 317 316 316 316 316 315 315 315 313 311 311 311 312 312 312 312 312 313 313 312 310 311 312 311 312 312 311 313 314 314 314 314 314 314 316 314 314 314 311 310 311 311 311 312 312 313 313 313 312 311 310 309 308 306 304 304 303 303 302 301 301 300
316 317 318 320 322 323 324 323 321 319 317 317 318 320 321 321 321 321 318 320 322 321 319 317 317 317 317 316 316 315 315 315 314 313 312 311 310 311 311 312 312 312 312 312 312 311 309 310 312 311 312 312 312 314 314 313 314 315 315 315 315 314 313 314 312 310 310 310 310 311 312 312 312 312 312 311 309 308 306 304 303 303 302 302 301 301 300 300
316 316 318 320 322 323 324 323 322 320 318 317 318 320 321 320 321 320 318 321 322 321 319 318 318 318 317 316 315 315 315 315 314 312 311 310 310 311 311 312 312 311 312 312 312 311 309 309 312 313 313 313 312 314 314 313 314 314 314 314 314 313 313 313 313 311 310 309 310 311 311 311 311 311 311 310 308 307 305 304 302 302 301 301 300 300 300 299
316 316 318 320 322 324 325 324 322 320 318 317 317 320 320 319 321 318 318 321 321 320 320 318 318 318 317 315 314 315 315 315 313 311 311 310 310 311 311 311 311 311 312 313 313 311 309 310 313 313 312 312 311 311 313 313 312 312 312 312 313 314 313 312 312 311 309 308 310 311 310 310 310 310 309 308 307 306 305 303 302 301 301 300 300 300 300 299
316 317 317 320 323 324 325 324 322 320 318 316 317 318 317 315 318 317 317 320 319 318 318 317 316 316 316 315 313 314 315 314 313 311 310 310 310 311 311 311 311 311 312 313 314 310 308 310 313 312 310 310 310 309 310 310 309 310 311 312 313 314 313 312 311 310 308 307 309 310 309 309 309 308 308 306 305 304 304 303 302 301 300 300 300 300 299 299
316 317 317 320 323 324 325 324 322 319 316 314 314 314 310 310 314 314 315 319 319 318 317 317 316 315 316 314 312 313 313 314 313 310 310 310 310 311 311 311 311 312 312 309 311 310 308 310 311 310 309 308 308 307 307 308 309 310 312 313 313 313 313 311 310 310 308 307 308 308 308 308 309 308 307 304 302 302 302 302 300 300 300 299 299 299 298 298
316 317 318 321 323 325 324 323 322 318 313 313 312 309 307 307 311 312 313 316 319 318 316 316 315 314 315 314 312 312 311 312 312 310 310 310 311 311 311 311 311 311 311 309 311 310 310 309 309 308 308 306 306 306 307 309 310 311 312 313 313 313 311 311 310 309 307 306 306 307 307 307 308 307 306 303 301 300 300 300 300 299 299 299 299 298 297 297
317 317 319 321 324 324 324 323 320 316 313 312 310 307 306 307 308 312 314 315 317 316 315 315 315 314 314 313 312 311 311 310 310 310 310 310 310 310 310 311 310 311 311 310 310 309 307 308 307 306 306 306 307 307 308 310 311 312 312 312 312 311 309 310 309 307 306 306 306 307 307 306 307 307 304 302 300 299 298 298 298 298 299 299 299 298 296 296
317 318 320 322 324 323 323 322 317 314 313 310 307 306 306 306 308 313 315 314 315 315 314 315 315 314 314 313 312 311 311 309 308 309 309 309 309 309 310 309 309 311 310 309 308 308 307 308 306 306 307 308 309 309 310 310 310 312 311 310 310 308 308 308 307 306 306 306 306 305 305 306 306 306 304 302 299 298 297 297 297 297 298 298 297 296 295 295
318 319 321 323 324 323 322 320 315 314 312 308 306 305 306 306 309 314 314 313 316 314 314 315 314 314 314 313 312 310 310 309 308 308 308 308 309 309 309 308 307 309 309 307 307 308 308 307 305 308 309 310 310 309 310 310 309 311 310 308 307 307 307 306 306 306 305 305 306 305 303 305 306 307 305 302 299 298 297 297 297 297 297 296 295 295 294 294
318 320 322 324 325 323 320 317 315 314 310 307 306 305 305 306 310 314 313 314 318 316 314 316 315 315 313 313 311 309 311 310 307 308 307 307 308 308 308 307 307 308 308 307 307 307 307 305 307 310 310 310 310 309 309 309 310 311 309 306 306 307 306 306 307 306 304 305 307 305 303 303 305 307 304 301 298 297 297 297 296 296 296 295 295 294 294 294
319 320 323 325 325 323 319 315 314 312 309 307 305 304 305 307 311 314 314 318 319 315 315 315 315 315 314 312 310 310 313 310 308 308 307 307 307 307 307 307 307 307 306 306 307 307 307 307 309 310 309 309 309 309 309 308 310 311 307 305 306 306 305 306 307 306 305 306 306 306 305 303 306 307 303 300 299 297 296 296 296 296 295 295 294 294 294 293
319 321 324 325 324 322 318 315 314 310 308 307 304 304 306 308 311 314 317 321 318 314 314 314 313 314 313 312 309 310 311 309 309 309 307 307 307 306 307 307 306 306 305 305 307 308 307 308 309 308 308 309 308 308 307 307 310 308 304 304 305 305 305 306 306 305 305 305 304 305 306 305 307 307 302 300 298 296 295 295 295 296 295 294 294 294 293 293
320 322 324 325 324 321 317 315 312 309 308 305 303 304 307 310 312 314 318 320 317 314 313 313 314 313 312 312 310 309 309 309 310 309 306 306 306 306 307 306 305 306 305 305 308 309 306 306 306 307 308 308 307 305 304 305 306 304 303 304 305 305 306 306 305 304 304 304 304 304 305 304 304 304 302 299 297 295 295 295 295 296 295 294 294 293 293 293
320 323 325 324 322 319 317 315 311 309 306 303 303 305 308 311 314 318 321 320 317 314 311 312 314 312 312 312 310 308 308 308 308 306 306 305 306 306 305 305 305 307 306 305 307 307 305 304 305 306 307 306 305 303 302 302 302 302 303 305 305 304 304 303 303 303 303 304 305 304 302 300 299 301 300 297 295 294 294 294 295 295 294 294 294 293 293 293
321 323 324 324 321 318 316 314 310 307 304 302 303 306 309 314 316 321 323 319 316 315 312 313 313 311 310 311 313 309 307 307 305 305 307 306 306 306 306 307 307 307 307 307 307 307 306 306 306 306 305 305 305 305 304 302 302 303 304 303 302 302 302 301 301 302 302 303 304 302 299 298 298 299 297 295 294 294 294 294 294 294 294 294 293 293 293 293
321 323 324 322 320 317 315 311 308 306 303 302 304 307 312 317 319 321 322 318 318 318 315 314 312 312 310 309 312 310 308 308 305 304 306 306 307 307 306 308 307 308 309 308 309 309 308 307 306 305 304 304 306 307 306 304 303 303 303 301 301 300 301 301 301 301 301 303 303 300 298 297 298 299 297 295 294 294 295 294 294 294 294 293 293 293 293 292
321 322 322 321 319 317 314 310 307 304 302 302 304 310 315 319 321 321 320 319 319 315 314 314 311 311 310 311 313 309 307 308 306 303 304 304 306 306 304 304 305 307 308 308 309 309 308 306 305 307 306 303 304 306 305 304 301 301 301 300 299 298 298 300 301 300 300 301 300 298 298 297 299 299 297 295 294 295 295 294 294 294 294 293 293 293 292 292
320 321 321 320 318 316 313 310 306 303 302 302 304 311 317 320 321 319 319 321 316 310 311 312 310 308 310 312 311 307 308 309 305 303 304 304 305 306 306 304 303 306 306 307 308 307 307 308 306 307 306 302 302 302 302 302 300 300 301 300 298 298 298 299 299 298 299 299 299 298 298 298 299 299 296 295 295 295 295 294 294 294 293 293 293 292 292 292
320 320 319 319 317 315 313 310 305 302 301 302 305 311 317 320 319 317 318 318 314 311 310 309 309 311 311 311 307 305 308 309 305 304 305 305 305 307 307 306 304 305 306 307 307 305 306 307 304 302 301 299 299 300 301 301 300 299 299 299 299 299 299 299 299 298 297 297 298 298 298 299 298 297 295 295 295 295 295 294 294 293 293 293 292 292 292 292
321 320 319 319 317 314 312 309 305 302 301 303 306 309 314 317 318 318 317 314 313 314 312 310 311 313 313 311 307 305 305 305 304 304 304 304 305 306 306 305 304 304 306 307 307 305 305 306 303 300 300 297 297 299 299 299 300 299 298 298 298 298 297 297 298 298 296 296 297 297 297 298 297 295 294 295 295 294 294 294 293 293 293 292 292 292 292 291
322 321 320 319 316 312 309 306 304 302 302 304 307 309 313 313 314 317 316 311 310 311 312 313 314 314 314 313 310 307 306 305 304 304 305 305 306 306 304 303 303 303 304 304 305 305 304 305 304 302 301 297 295 298 297 296 298 298 297 297 297 296 296 295 295 296 296 295 296 296 296 296 296 296 295 294 294 294 293 293 293 293 293 292 292 292 291 291
322 322 321 320 317 312 308 305 304 303 303 305 307 309 312 311 309 310 311 309 309 310 311 313 314 314 314 314 311 307 306 307 306 305 305 306 306 306 304 303 302 300 300 301 303 304 303 304 303 301 299 298 297 298 298 296 296 297 297 297 296 295 295 294 293 294 294 294 295 296 296 295 296 296 294 294 293 293 293 292 292 292 292 292 292 291 291 291
322 320 319 319 318 312 307 304 304 304 305 305 306 308 310 310 307 306 308 309 310 311 311 312 313 313 311 311 311 307 305 307 306 305 306 307 306 305 304 303 302 299 298 300 302 303 302 302 302 299 298 298 298 299 298 297 295 295 296 296 295 294 293 293 293 293 293 294 294 295 295 295 295 294 293 293 293 292 292 292 292 292 292 292 292 291 291 291
320 315 313 315 314 308 304 304 305 306 307 307 307 308 309 309 306 305 307 309 309 310 312 312 312 312 311 310 310 307 306 305 304 305 306 307 306 305 303 302 301 298 297 298 300 301 300 301 302 299 297 297 298 298 299 298 296 295 295 295 295 294 293 293 293 292 292 293 293 293 294 295 295 293 293 293 293 292 292 292 292 292 292 291 291 291 291 291
317 312 310 312 312 306 304 305 307 308 310 310 308 309 309 308 308 307 306 307 309 309 310 311 311 311 311 311 309 307 306 304 303 304 305 304 306 306 302 300 300 298 297 298 299 299 299 300 301 299 298 299 298 296 296 297 297 296 295 295 294 294 293 293 293 292 292 292 292 292 293 294 294 293 293 293 293 293 292 292 292 292 292 291 291 291 291 291
314 310 310 313 312 307 305 308 308 308 311 311 307 308 309 308 309 310 307 306 308 308 308 308 310 311 311 311 309 307 307 306 304 304 305 305 306 305 300 299 299 298 298 298 298 298 297 298 299 299 298 297 295 293 293 295 296 295 295 295 294 294 293 292 292 292 291 292 292 291 292 294 293 293 294 293 293 293 292 292 292 292 291 291 291 291 291 290
311 310 311 313 311 307 306 308 308 309 311 310 307 307 308 308 310 311 308 307 308 308 308 308 308 309 310 310 309 307 307 308 306 305 306 305 303 300 297 297 298 297 297 297 297 297 297 297 297 298 297 293 292 293 293 293 294 294 294 294 294 294 294 293 293 292 292 292 292 292 293 294 294 294 294 294 293 293 292 292 292 291 291 291 291 291 290 290
313 310 310 312 311 307 307 309 310 310 310 308 308 308 307 307 309 310 310 309 309 308 309 309 308 309 308 308 308 307 307 308 309 307 306 304 300 296 295 296 297 296 296 297 297 297 298 297 297 297 297 294 293 294 294 293 293 294 294 294 294 294 293 293 293 293 293 293 292 292 292 293 294 294 294 293 293 292 292 292 291 291 291 291 290 290 289 289
313 311 308 308 309 308 308 310 310 311 310 309 309 309 308 307 308 309 310 310 308 308 309 309 307 307 306 305 306 306 306 308 309 307 304 302 298 295 294 295 295 295 295 295 296 297 297 297 297 297 297 297 297 296 295 294 293 293 293 293 293 293 293 293 292 292 293 293 292 292 292 293 293 293 293 292 292 291 291 291 291 291 291 291 290 289 289 288
312 313 309 306 308 309 308 308 308 309 311 310 309 310 310 309 308 307 308 309 308 307 307 306 304 304 305 305 306 305 305 306 306 304 302 300 297 296 295 294 295 294 294 295 296 297 297 296 296 296 296 296 297 295 294 294 293 293 293 293 293 293 293 293 292 292 292 292 292 293 292 292 293 292 292 292 291 291 291 291 291 291 291 290 289 288 288 288
311 313 310 307 309 309 309 308 307 307 309 310 311 311 311 310 309 307 306 307 308 306 305 303 303 305 306 305 306 305 303 304 303 301 301 300 297 296 295 295 295 294 295 296 296 296 296 296 296 296 296 296 295 294 294 293 293 293 293 293 293 293 293 294 293 292 292 292 292 293 292 292 292 291 291 291 291 290 291 291 291 291 290 289 288 288 287 287
311 311 311 311 313 312 310 309 307 307 308 308 309 311 311 311 311 309 307 305 304 304 306 305 303 306 307 306 306 305 303 303 302 300 301 300 297 296 295 295 295 295 295 296 296 295 296 295 295 296 296 295 294 294 294 293 293 293 293 293 293 293 294 293 292 292 292 292 292 292 292 292 291 291 291 291 291 291 291 291 291 290 289 288 288 287 286 286
311 310 309 310 313 313 312 310 308 307 308 308 308 309 310 310 311 309 307 304 303 302 305 307 305 304 305 306 306 305 303 304 303 301 300 300 298 297 297 295 295 295 295 294 294 295 295 295 294 294 294 294 293 293 293 293 293 293 293 293 293 293 293 293 292 292 292 292 292 292 292 291 291 291 291 291 291 291 291 291 290 289 288 287 287 286 285 284
312 311 310 308 308 309 309 310 309 308 309 308 308 309 309 309 310 309 306 305 306 303 303 307 307 304 303 304 305 305 304 304 305 302 300 301 299 297 298 297 295 295 294 294 294 294 295 295 294 293 294 294 293 293 293 293 293 293 293 293 293 292 293 293 292 292 292 292 292 291 291 291 291 292 291 291 291 291 291 290 289 288 287 287 286 285 284 283
314 314 312 310 308 308 307 308 309 310 311 310 309 309 309 309 309 309 307 305 307 306 302 304 306 304 302 302 303 304 303 302 304 302 300 300 300 299 298 298 297 295 294 294 294 294 295 295 293 293 294 294 293 293 293 293 292 292 292 292 292 293 293 292 292 292 291 291 291 291 291 291 291 292 291 291 291 291 290 289 288 287 287 286 285 283 282 281
315 314 313 311 312 311 309 308 309 310 312 312 310 310 310 309 308 309 308 306 304 304 303 303 304 303 301 301 301 302 301 300 299 298 298 298 298 297 297 296 297 296 295 294 294 294 295 294 293 293 293 293 292 292 292 292 291 292 293 293 293 292 292 292 291 291 291 291 290 291 291 291 291 291 291 290 291 290 289 288 287 286 286 286 283 282 281 280
Wind_Speed
12 13 14 14 15 15 16 16 17 19 20 21 22 23 24 25 25 25 25 26 28 31 33 33 28 20 13 4 3 5 6 5 4 3 3 6 7 7 9 11 11 10 9 9 9 8 5 3 4 6 8 6 4 4 2 3 3 2 2 2 1 1 1 2 1 1 4 8 10 7 4 6 7 6 11 14 11 10 14 16 15 16 16 21 26 30 32 31
13 13 15 15 16 16 16 16 16 18 19 20 21 22 23 24 25 25 24 25 27 30 32 33 29 21 13 5 2 5 5 3 2 5 8 8 7 8 11 11 11 11 11 11 10 9 7 7 7 7 8 4 2 3 1 3 4 1 1 2 0 1 1 1 1 1 3 8 16 16 7 7 6 6 10 10 11 12 10 10 13 18 22 26 30 34 37 35
13 14 15 16 16 17 17 16 16 17 18 19 20 21 23 23 24 24 24 24 26 29 32 32 29 21 13 5 0 5 4 1 3 7 9 7 7 9 10 11 12 12 13 13 12 11 9 10 9 9 9 4 2 2 1 2 3 1 2 3 1 2 0 1 2 1 3 8 15 16 11 10 5 5 7 7 13 11 7 12 15 18 23 27 31 32 35 36
12 14 15 16 17 17 17 17 16 16 17 18 19 20 22 23 23 24 23 23 25 29 31 31 27 19 12 6 2 4 6 2 6 9 8 7 8 9 10 12 13 14 14 12 10 10 9 10 10 9 7 3 2 2 1 3 3 1 3 3 3 3 1 2 2 2 2 5 12 16 14 10 7 7 6 6 9 7 10 16 16 17 21 26 29 28 29 30
12 14 15 16 17 17 17 17 17 17 16 17 18 20 21 22 23 23 23 23 25 28 30 30 25 17 10 6 3 4 7 2 5 8 8 8 10 10 11 13 13 13 11 10 10 10 9 9 9 7 5 2 2 1 1 2 2 2 3 3 2 2 1 3 2 1 1 6 11 15 11 8 10 7 4 6 6 6 11 14 16 19 22 24 25 24 25 26
13 14 15 16 17 17 17 18 18 17 16 17 17 19 20 22 23 22 22 22 24 28 30 28 21 13 7 6 5 5 6 1 3 6 8 9 10 11 12 12 12 11 10 10 10 10 9 9 7 4 3 1 1 2 1 2 2 3 2 2 1 3 2 2 2 2 4 7 10 12 9 8 10 5 3 7 7 7 10 13 17 21 21 21 21 21 23 26
13 14 15 16 17 17 18 18 18 17 16 16 17 18 20 21 22 22 22 22 24 27 29 26 17 8 5 7 7 7 7 6 3 6 9 10 10 10 11 11 12 10 10 10 10 9 9 9 6 3 2 1 0 1 3 4 3 3 2 1 1 3 3 3 2 6 8 8 10 12 13 12 8 4 6 8 6 5 9 14 19 19 18 18 18 19 22 24
13 14 15 16 17 17 18 18 18 17 16 16 17 18 19 21 22 22 22 22 23 27 29 24 14 6 2 4 8 9 10 7 6 8 9 10 9 9 10 11 12 11 10 10 10 9 8 8 7 4 2 1 1 2 4 5 4 4 3 3 4 2 2 4 5 8 8 8 11 10 14 12 4 4 6 3 6 9 14 20 20 17 16 17 17 18 20 23
14 15 16 17 17 18 18 18 17 16 15 16 17 19 20 21 21 21 21 21 23 27 28 22 11 5 2 1 2 5 8 8 8 9 8 8 7 8 10 11 12 12 11 10 10 10 8 7 7 5 2 1 2 3 2 4 1 2 5 6 10 8 4 5 4 5 5 5 6 5 12 10 5 4 3 5 9 17 24 21 19 19 16 16 16 19 22 25
14 15 16 17 18 18 18 18 17 16 15 16 17 19 20 21 20 20 20 21 24 27 27 20 9 4 3 3 2 3 6 10 10 9 7 6 6 7 10 11 12 12 11 10 11 11 10 7 7 5 3 2 3 3 2 3 2 3 9 10 13 12 6 3 3 4 2 3 4 2 13 12 6 5 2 8 13 25 28 19 18 19 15 16 19 22 24 27
14 16 17 18 19 19 19 18 17 16 15 16 17 19 20 20 20 19 19 20 24 28 27 18 6 3 4 3 7 6 7 11 11 9 8 5 5 6 8 11 13 13 12 11 12 12 11 8 7 5 1 2 3 4 4 4 5 5 9 11 13 10 2 5 6 2 1 4 5 5 14 11 3 2 4 10 19 26 27 19 18 17 16 19 22 24 25 27
15 16 17 19 19 20 20 18 17 16 15 16 17 18 20 20 19 19 19 20 24 28 25 15 5 1 5 8 12 11 11 12 11 10 10 6 4 4 7 11 12 13 12 11 12 12 11 8 6 4 2 4 4 2 3 4 6 5 5 7 11 7 4 9 7 5 1 4 2 6 9 5 0 3 8 14 21 21 21 16 17 17 19 20 21 23 26 27
16 17 18 19 19 20 20 18 17 16 16 16 17 18 19 20 18 18 18 19 24 28 24 16 6 3 2 7 12 12 11 11 12 12 10 8 6 4 7 10 11 11 10 10 11 13 12 8 5 3 3 4 3 4 6 6 4 3 1 2 7 7 2 7 8 7 2 5 4 4 5 3 3 5 7 14 19 17 16 13 16 16 17 18 20 22 24 27
16 16 18 18 19 20 20 19 17 17 17 17 18 18 19 19 17 17 17 18 25 27 23 15 5 3 4 7 9 8 6 6 7 8 9 9 8 5 7 9 10 10 9 9 11 13 13 7 5 3 4 5 5 7 7 3 1 3 1 2 2 4 4 4 8 8 5 4 8 10 4 5 7 6 7 14 14 14 13 14 16 15 16 17 19 20 22 25
15 16 18 18 19 20 20 19 17 17 17 17 18 18 20 19 16 17 15 18 26 26 21 13 2 5 7 8 6 4 2 1 2 4 8 10 8 5 7 9 10 10 8 7 9 13 13 7 3 3 3 6 7 6 5 2 1 2 2 2 3 3 8 9 6 8 8 5 9 9 4 6 6 8 17 18 11 10 10 16 16 16 17 17 19 20 21 23
15 16 17 18 19 19 20 20 18 18 17 18 19 18 20 18 16 16 13 19 26 24 18 9 3 5 5 4 3 2 1 1 1 4 8 9 7 6 7 9 9 10 7 5 8 12 13 7 2 3 4 6 5 4 5 2 1 2 4 5 5 6 9 9 3 8 11 9 6 4 4 6 5 11 21 18 12 10 16 17 16 17 18 18 18 19 21 23
15 16 16 17 18 19 20 19 19 19 17 19 19 19 20 16 16 14 11 19 25 22 12 6 5 1 2 1 3 1 2 3 1 4 8 8 8 7 7 8 8 10 6 3 8 11 12 6 1 1 3 3 3 4 5 5 4 4 5 5 6 7 8 10 3 5 11 10 6 4 2 5 9 13 19 15 10 16 19 15 17 18 17 18 18 20 22 24
15 15 16 17 18 19 19 19 20 19 18 19 18 21 19 14 17 11 9 21 24 18 6 3 8 2 2 2 2 1 3 4 1 4 7 9 8 6 8 9 8 10 6 2 7 12 11 4 2 1 1 3 5 5 4 5 6 7 7 7 6 6 6 11 9 6 11 10 9 7 1 5 11 12 15 13 15 20 18 15 17 18 17 18 19 20 21 23
14 15 15 16 18 18 19 19 20 19 20 19 18 21 17 17 18 5 9 25 19 9 4 6 9 3 1 2 1 1 5 6 1 5 8 9 9 7 8 10 8 11 7 2 6 11 10 4 1 1 3 5 6 4 3 5 6 8 8 7 7 8 7 9 12 8 12 13 9 7 7 10 11 11 11 14 20 19 17 16 16 16 16 18 18 19 20 23
14 15 15 15 17 18 18 18 19 20 21 19 20 21 17 19 14 3 16 27 15 9 9 8 6 4 1 2 2 0 5 6 2 6 9 9 10 7 8 11 9 10 8 2 6 7 6 3 0 2 4 6 5 3 4 4 4 6 7 6 8 10 6 8 12 6 10 13 9 9 14 10 9 11 10 17 20 18 16 15 15 14 14 15 16 17 20 22
14 15 14 15 16 17 18 18 18 20 20 20 22 19 14 14 7 5 19 22 17 19 11 5 5 4 3 2 3 1 4 6 4 5 9 9 10 6 7 10 6 6 5 2 5 3 3 2 1 2 3 4 4 2 3 4 4 5 5 7 8 8 8 11 11 5 10 11 10 15 17 9 8 11 9 18 18 17 15 14 14 14 14 14 15 17 21 22
14 14 14 14 15 17 17 17 18 18 18 18 19 17 13 12 8 9 12 12 19 18 5 4 4 4 4 2 3 2 2 4 5 5 8 7 9 6 5 7 3 3 4 3 4 3 4 1 2 2 1 0 0 1 1 3 4 4 4 6 7 6 10 9 5 2 9 8 11 16 15 9 8 5 12 17 16 16 15 14 12 13 15 16 17 20 25 27
14 14 14 14 14 16 16 17 17 16 16 16 16 15 14 13 12 12 8 8 14 10 3 4 4 3 2 2 4 4 0 1 3 6 9 7 7 7 5 4 2 1 1 3 3 3 5 2 3 2 1 2 1 1 1 4 3 2 4 4 6 7 9 5 1 7 10 6 8 13 13 9 2 7 13 14 15 16 15 15 14 14 16 17 18 21 27 30
14 13 14 13 14 14 15 16 15 15 16 15 14 13 13 14 13 13 9 5 7 5 3 5 5 2 1 1 4 4 1 1 3 6 9 8 6 6 4 3 1 1 1 2 1 3 6 4 3 2 2 1 2 2 2 4 3 1 2 2 6 8 8 8 10 15 12 4 4 12 12 4 6 8 8 9 11 13 14 17 19 18 16 17 20 23 28 29
13 14 14 13 13 13 14 14 14 14 15 14 12 12 13 14 14 12 8 3 4 3 3 5 4 3 2 2 4 3 1 1 3 5 8 9 7 4 2 2 1 1 2 1 1 5 5 2 3 1 1 4 3 4 3 3 5 1 2 1 6 9 10 12 13 14 11 4 6 12 10 2 5 6 9 7 7 11 15 19 20 19 18 20 23 25 28 30
14 14 13 13 12 12 13 13 13 14 13 12 11 12 13 13 13 12 6 1 2 0 2 4 3 3 4 2 2 2 2 2 2 4 5 7 6 3 0 1 1 1 2 1 2 3 1 2 2 1 3 4 4 3 1 1 5 3 1 2 6 8 10 13 13 9 9 9 5 8 6 7 5 3 10 8 7 9 13 15 16 17 19 22 24 27 31 33
14 13 13 13 12 11 13 13 13 13 13 11 11 11 12 12 12 10 5 1 2 1 1 3 2 3 3 2 1 0 2 1 1 1 3 5 5 2 2 1 1 1 2 1 3 1 2 2 2 3 3 4 4 2 1 1 3 2 2 3 6 9 11 13 11 7 7 9 7 2 6 8 7 1 9 7 7 9 12 13 14 17 21 25 27 31 33 34
14 13 14 13 11 11 12 12 13 13 12 11 10 10 10 11 10 6 3 2 1 2 2 2 2 3 2 2 1 2 2 2 2 1 1 4 4 0 2 2 1 1 2 3 4 1 2 1 3 3 2 2 2 1 3 1 2 2 4 4 6 7 10 10 9 9 7 6 7 4 4 5 6 2 7 6 7 10 13 13 14 18 22 27 29 32 35 36
14 13 14 13 11 10 11 12 12 12 11 10 10 9 9 10 6 2 0 2 0 2 2 1 2 2 1 2 2 2 1 1 1 2 0 1 2 0 2 0 2 2 2 3 5 1 2 1 1 1 3 1 2 3 3 2 0 4 5 5 6 7 9 8 7 8 6 4 8 4 2 3 6 2 1 4 6 8 11 10 12 18 23 27 31 35 38 40
15 14 14 13 12 11 11 11 12 11 11 10 8 8 8 7 2 0 2 2 0 1 2 2 2 2 3 2 3 0 1 2 3 3 0 2 1 2 1 2 3 2 1 1 3 1 2 1 1 0 2 1 5 4 2 2 3 5 4 4 7 7 8 7 5 4 3 4 5 2 4 3 5 2 1 4 4 6 9 10 12 19 26 31 35 37 38 38
15 15 14 13 12 11 11 12 12 11 10 9 7 7 6 2 0 2 3 1 0 0 1 1 1 1 2 1 2 0 1 1 4 3 1 1 1 3 2 2 2 2 2 2 3 1 1 2 2 2 2 2 3 2 1 1 4 4 3 7 8 6 5 5 3 1 2 3 2 6 3 4 7 1 5 5 5 7 9 11 14 20 28 33 34 35 35 34
16 15 15 14 12 11 11 12 11 11 10 7 5 5 3 1 2 4 2 1 1 1 1 0 0 1 2 1 2 1 1 1 1 2 1 1 1 1 0 2 1 2 4 2 1 1 1 3 1 3 2 1 2 2 2 3 1 3 5 6 6 6 5 4 3 2 5 4 6 5 4 6 9 2 7 7 6 9 10 14 17 21 27 30 31 32 32 33
17 16 15 14 13 12 12 12 11 11 10 6 2 2 2 1 3 3 2 1 0 1 1 1 1 1 1 1 3 1 0 2 2 2 1 1 1 1 2 2 1 3 3 1 0 2 1 2 1 2 1 1 1 2 2 1 4 5 3 3 4 5 6 7 6 5 6 4 5 1 4 6 9 2 8 6 6 8 14 19 19 20 24 28 30 31 32 34
16 16 16 15 13 13 13 12 11 10 8 3 1 0 1 3 3 0 2 3 1 2 2 2 1 0 2 3 2 1 2 2 2 1 1 2 3 3 3 4 3 1 1 1 1 2 3 2 2 2 1 1 1 2 2 1 3 4 3 1 2 2 5 6 5 5 7 9 6 4 3 4 5 3 9 5 5 10 18 20 17 20 25 29 31 31 33 35
16 16 16 15 14 14 13 13 11 9 7 3 2 2 4 5 3 1 2 2 1 0 1 1 1 1 3 3 0 1 4 2 2 1 2 3 4 3 3 4 4 3 3 2 1 1 4 3 3 3 2 2 1 1 2 1 2 3 2 2 3 1 3 5 3 1 5 11 8 4 4 3 1 7 9 2 7 15 20 19 20 24 29 31 32 32 34 37
16 16 16 15 14 14 14 13 11 8 8 5 3 5 7 4 2 2 2 1 1 1 1 1 3 2 4 3 1 1 3 2 0 1 3 3 3 3 2 2 3 3 2 2 1 2 3 1 4 3 3 5 3 1 3 3 1 2 1 2 0 2 1 4 3 1 3 8 7 3 5 4 1 6 5 3 11 16 16 18 23 29 32 34 34 35 37 40
15 15 15 14 14 14 14 13 10 9 10 8 4 7 5 3 4 4 3 3 2 2 1 2 2 3 4 2 2 3 3 2 2 1 2 2 2 3 4 2 2 3 2 2 1 1 1 1 3 3 4 5 4 8 9 6 3 1 2 1 2 3 3 1 2 2 4 7 6 6 9 8 4 2 2 6 14 16 16 20 26 32 35 35 37 39 41 44
15 15 16 15 15 16 14 12 11 12 10 6 7 8 4 3 6 5 5 5 3 3 3 4 3 3 4 4 2 4 4 2 3 2 2 3 2 4 6 3 3 3 2 2 0 1 1 2 2 1 3 4 2 4 6 5 4 1 1 1 1 2 2 3 1 3 6 7 7 8 10 8 5 2 3 9 15 16 19 22 25 30 34 36 39 41 44 46
15 14 14 13 15 16 15 14 13 13 9 5 7 8 3 3 6 8 9 7 3 3 3 5 6 3 3 3 1 3 5 4 3 2 2 3 2 4 6 3 3 3 1 1 1 0 1 2 1 2 2 3 1 2 3 3 4 3 1 2 0 1 2 2 0 1 5 7 7 9 10 5 1 2 6 12 14 15 20 21 22 27 33 37 39 41 44 47
13 9 8 9 9 11 12 13 13 12 6 4 6 4 1 2 6 11 15 11 5 5 5 4 6 6 3 3 2 2 4 4 3 3 3 2 1 3 6 4 5 5 2 3 1 0 2 2 2 3 2 2 3 2 2 3 3 4 4 4 2 2 2 2 1 2 3 6 5 7 9 5 3 3 7 11 12 15 20 21 21 27 34 38 39 41 46 50
10 5 7 10 9 9 12 12 10 7 3 2 3 2 1 3 5 9 16 16 10 8 6 3 5 6 4 3 4 3 4 3 4 4 3 4 3 3 6 6 8 8 4 3 2 1 2 2 2 4 4 4 2 2 2 5 4 5 5 4 4 4 2 3 4 2 2 4 4 5 11 8 1 1 4 7 12 17 22 24 24 29 35 39 40 43 49 53
9 5 7 9 9 11 13 9 4 3 3 3 3 3 4 5 4 7 12 13 9 7 5 3 4 4 4 5 4 4 3 3 5 4 4 5 4 1 5 11 12 11 5 2 2 1 2 1 2 3 3 1 2 4 3 4 4 4 3 3 4 4 4 3 5 2 2 5 5 6 11 8 1 2 3 11 17 21 25 27 28 31 36 39 41 46 51 54
11 10 10 9 11 14 13 5 2 3 3 4 4 5 6 5 4 6 8 8 6 5 5 4 4 6 7 5 4 4 4 4 5 6 4 3 2 2 8 15 13 9 5 2 2 4 3 2 3 3 1 3 2 2 3 2 2 4 3 4 5 4 4 4 5 4 3 6 6 6 11 7 4 4 8 18 22 25 27 29 30 33 37 40 44 48 50 51
13 15 13 12 14 17 13 5 4 5 5 4 4 5 6 6 7 8 7 8 9 6 4 4 5 8 7 3 3 5 6 5 6 6 4 2 3 5 11 15 11 6 3 2 4 6 4 2 3 2 3 1 1 2 2 0 2 3 4 6 7 6 4 3 4 4 5 8 9 8 9 8 2 5 14 19 21 24 27 30 32 34 37 40 45 47 48 50
9 10 11 14 20 23 16 10 7 6 7 8 7 7 7 5 10 16 14 11 13 9 4 3 5 7 4 2 2 5 7 6 5 2 3 2 3 4 8 10 8 5 3 3 5 6 3 2 3 3 5 5 4 2 2 3 4 4 4 6 8 8 8 5 4 5 6 6 9 10 9 11 12 14 18 18 18 21 25 32 36 34 35 40 44 45 47 48
7 5 6 9 18 25 22 17 12 8 7 8 7 7 11 8 7 16 18 12 14 15 8 3 4 5 2 3 4 5 7 6 2 1 3 4 3 2 5 8 6 4 4 4 5 5 1 2 6 8 8 7 6 2 4 4 4 6 6 8 10 10 10 7 4 6 7 6 8 11 11 14 18 18 19 19 19 19 22 31 37 35 36 42 44 44 45 45
7 3 7 7 9 16 18 17 14 10 8 9 6 5 12 12 6 9 14 11 13 16 8 2 6 7 6 8 6 5 6 4 2 3 3 4 3 1 4 5 2 2 4 5 6 4 2 3 7 10 12 8 6 3 3 4 7 9 9 9 11 11 10 8 7 10 9 7 10 11 9 14 18 18 20 19 18 17 21 30 36 33 36 43 44 42 43 44
13 6 12 15 10 8 11 14 16 15 13 11 9 7 10 14 12 11 10 7 8 12 9 5 8 13 12 11 7 3 5 5 4 3 3 4 4 3 3 3 2 4 5 4 5 4 1 4 5 6 9 7 5 6 5 5 8 10 11 13 12 11 11 11 12 15 12 10 12 13 15 19 19 18 19 18 18 20 24 31 34 31 35 42 41 40 42 44
19 10 11 18 15 9 11 18 21 19 16 13 11 12 13 17 18 12 6 4 4 10 14 11 10 14 14 11 8 7 8 7 6 5 4 4 5 5 4 2 4 7 7 4 3 3 1 2 3 3 6 5 6 9 9 8 9 10 13 16 14 12 13 13 13 16 16 16 17 17 21 22 17 15 16 17 22 24 25 30 33 32 35 38 38 39 42 44
27 20 14 15 15 14 12 15 17 13 14 15 14 14 15 19 21 11 6 9 9 7 12 15 13 12 12 11 12 12 12 10 5 5 8 5 4 5 4 2 5 7 6 4 3 3 2 1 2 1 4 5 8 11 10 9 9 11 14 17 15 13 14 13 12 12 14 15 17 17 19 17 12 13 17 21 25 24 22 26 30 33 34 35 35 39 41 43
40 35 24 13 9 14 14 10 10 8 10 14 15 15 15 19 21 14 7 14 16 7 11 18 13 7 7 10 15 14 10 9 4 5 12 11 8 9 6 5 9 8 5 4 4 3 4 2 2 2 4 4 7 8 8 5 6 11 15 19 16 12 11 9 8 8 10 12 14 14 13 11 9 14 19 24 26 24 22 23 27 32 35 34 35 38 39 40
45 40 34 21 10 14 15 8 8 10 11 13 16 17 17 16 17 14 9 12 15 12 14 17 11 7 5 11 17 13 8 9 5 6 12 13 10 11 9 11 15 12 7 6 4 4 5 3 2 2 3 2 5 5 3 2 4 8 10 11 10 8 8 8 7 9 11 12 11 9 10 10 12 16 18 20 22 23 23 24 27 32 32 30 34 38 39 39
Wind_Direction
21 18 16 14 11 7 4 4 5 6 5 2 1 2 4 5 4 2 2 359 358 357 355 354 357 1 352 329 179 164 129 88 50 34 51 46 32 13 360 355 352 355 1 356 350 350 354 338 311 319 339 336 327 348 1 37 23 254 224 262 230 162 138 146 172 37 328 324 326 325 359 340 338 347 328 323 307 290 306 315 327 332 331 337 340 341 340 340
18 15 14 12 10 6 2 360 1 3 2 360 358 359 1 3 2 359 359 358 356 356 355 353 353 359 355 331 212 194 165 115 355 18 41 37 9 358 355 352 354 357 359 354 349 349 346 335 325 330 339 326 324 341 315 7 351 274 225 273 242 115 94 108 132 64 324 320 319 318 341 341 334 342 329 323 312 306 314 336 353 350 350 350 346 343 340 343
13 11 9 8 7 5 3 360 358 359 358 357 355 356 358 359 360 357 357 357 354 354 355 353 352 357 356 350 123 198 183 103 349 15 23 12 353 350 348 349 350 349 350 347 346 349 346 338 334 334 334 318 307 320 292 342 337 234 238 279 69 100 103 213 218 233 306 311 309 312 326 327 336 353 328 311 310 318 0 11 5 354 351 349 345 342 340 341
7 5 4 3 2 3 4 2 359 357 355 355 353 354 355 356 357 356 355 355 353 353 354 352 351 356 357 359 23 199 185 107 23 8 355 346 347 347 346 345 343 344 348 349 350 352 347 337 330 328 324 305 302 302 290 345 346 177 238 312 77 112 283 161 203 273 289 300 298 302 309 313 334 344 318 301 314 350 23 9 3 351 346 345 342 340 338 339
0 359 358 358 359 1 3 3 1 357 355 354 354 352 352 353 354 354 354 353 351 351 353 351 350 356 1 1 28 165 180 149 11 350 339 343 346 346 344 343 344 351 357 2 3 353 342 332 323 324 322 281 306 298 127 5 332 215 233 299 89 148 311 97 115 293 304 304 295 295 303 317 319 320 308 299 311 358 6 1 1 352 347 344 341 339 337 340
355 354 354 354 355 358 0 1 360 359 357 356 355 352 351 351 351 351 351 351 350 350 351 352 351 358 13 28 59 146 166 99 4 341 345 347 346 348 349 352 358 6 12 12 5 349 336 330 325 330 318 253 336 335 9 357 294 271 225 253 227 192 269 61 116 286 301 300 291 289 302 313 302 302 311 290 287 327 357 5 359 351 348 345 342 341 342 353
350 350 350 349 353 355 357 358 357 359 359 358 357 353 350 349 349 349 349 349 349 349 351 353 353 359 28 54 79 121 113 82 36 357 354 352 354 359 2 10 14 16 15 7 358 351 341 338 347 345 297 247 61 323 323 301 247 258 252 257 257 187 240 277 262 286 283 273 276 285 296 296 290 306 301 293 307 345 11 5 354 349 350 349 344 344 353 10
346 346 345 346 349 352 354 355 356 358 359 0 357 353 349 348 347 346 347 346 347 349 351 354 354 352 24 80 92 91 74 61 31 10 0 1 10 20 24 24 21 17 9 2 3 4 355 349 355 348 311 31 319 281 312 297 219 214 276 321 300 231 226 265 278 278 259 259 270 278 294 299 334 330 280 305 35 32 7 355 355 359 357 352 350 1 17 28
341 343 343 342 345 350 351 351 354 356 359 1 357 353 348 346 346 344 344 344 347 349 350 354 351 336 303 213 119 75 53 46 36 25 14 17 27 36 32 24 18 15 10 9 15 14 5 355 352 343 314 323 295 277 307 303 202 210 293 313 300 298 300 286 275 246 227 257 262 271 300 308 13 337 242 93 46 14 357 352 4 10 3 1 15 33 41 42
337 340 341 340 342 348 348 348 352 355 358 360 358 353 345 345 345 342 343 342 346 348 350 353 344 339 326 249 161 89 67 58 45 36 32 37 41 37 26 16 13 12 15 20 21 14 10 7 354 342 300 279 281 272 255 273 311 312 302 302 291 289 300 279 166 159 179 193 188 277 312 313 340 311 134 75 21 2 355 354 10 16 20 31 49 54 48 44
334 338 340 338 340 346 346 345 349 353 355 357 358 353 345 345 344 341 342 341 345 346 350 353 336 16 32 122 113 96 85 68 54 50 48 48 42 31 16 11 11 11 19 27 22 14 13 16 2 357 319 282 289 265 231 256 298 312 311 304 288 277 220 152 129 91 98 135 163 251 305 315 321 313 68 33 5 358 352 358 22 36 51 58 62 55 48 44
332 337 338 337 340 344 345 343 345 350 352 353 357 353 346 344 343 341 340 340 344 344 348 353 325 99 67 88 96 97 94 76 61 56 51 48 38 19 12 9 9 10 20 30 25 18 15 19 12 7 340 306 311 292 248 279 303 300 316 306 301 309 153 141 91 33 86 107 127 241 292 319 115 37 49 11 356 350 346 9 47 61 66 65 60 53 50 43
332 335 336 336 339 342 343 341 342 346 347 348 353 353 347 344 343 341 339 339 342 342 345 351 326 227 101 78 95 104 99 78 62 52 42 38 33 22 14 8 7 11 24 36 30 20 13 18 22 7 359 333 304 308 298 299 302 286 300 277 315 338 149 131 77 25 53 103 49 315 311 353 1 42 50 355 348 343 349 38 72 73 69 62 57 54 49 39
330 332 334 334 337 340 341 340 339 343 345 345 348 351 348 344 342 340 337 339 341 340 341 349 351 186 129 101 112 115 105 85 66 46 30 29 28 21 14 8 7 12 28 41 32 20 10 12 28 17 18 0 316 294 289 284 298 295 247 185 355 353 315 23 59 37 49 90 6 345 326 334 338 9 2 342 345 339 359 71 84 69 67 60 56 53 44 37
330 331 332 332 336 339 340 340 337 340 343 343 344 347 347 343 340 338 334 339 341 338 339 350 53 150 120 112 123 125 129 110 40 18 19 26 29 20 10 7 8 12 24 34 28 18 8 6 34 17 345 347 337 304 276 213 142 330 333 307 14 356 311 340 55 70 45 5 351 356 336 324 324 335 335 336 341 345 38 85 78 65 66 58 54 48 39 32
327 329 330 331 334 338 340 339 337 338 341 342 342 345 345 341 340 336 328 337 340 338 342 9 98 154 122 118 150 134 179 200 315 359 13 22 29 22 13 10 7 10 16 25 24 15 4 5 95 60 15 350 343 320 299 282 206 46 18 332 336 333 315 327 73 88 33 357 356 18 332 316 302 317 324 329 348 40 83 82 68 68 64 56 53 43 34 28
326 328 329 329 332 336 338 338 338 338 340 341 339 342 343 341 341 331 321 338 341 338 340 41 39 278 151 172 198 183 203 189 14 10 14 17 21 21 22 20 12 9 10 7 16 12 2 2 158 70 51 24 345 328 323 322 326 346 355 328 314 314 310 315 317 68 24 354 324 312 269 305 306 312 320 332 25 79 89 73 68 69 60 56 47 36 33 27
324 326 327 328 330 334 337 338 338 338 341 342 340 342 342 342 343 328 318 339 341 340 335 22 359 301 161 91 185 259 208 184 37 12 10 9 12 18 25 27 22 13 5 324 5 8 359 353 201 283 9 19 12 10 349 334 323 314 320 318 308 304 293 300 306 0 8 342 313 312 308 324 315 314 332 7 68 86 83 73 71 64 56 51 38 33 30 22
321 323 325 326 327 332 336 338 339 339 340 342 341 344 344 344 346 329 329 343 345 351 330 314 329 273 184 63 99 265 193 191 304 0 2 3 7 14 23 25 23 13 7 319 352 4 358 343 211 329 348 355 6 13 336 318 310 301 305 300 295 303 286 288 301 338 358 335 322 334 336 332 324 330 6 57 77 74 71 74 70 60 53 42 34 32 23 16
317 320 322 324 325 330 335 338 341 341 342 346 348 352 355 351 353 321 334 344 344 332 317 290 284 253 231 91 65 337 189 208 265 359 354 357 6 13 16 12 6 13 27 332 326 358 359 334 306 356 342 340 339 319 297 296 291 287 294 287 291 304 292 294 302 332 10 340 325 336 329 332 336 342 42 82 74 62 64 68 66 57 50 40 36 30 19 13
313 316 320 323 324 327 334 339 342 343 346 350 353 3 11 3 3 315 333 340 328 321 315 260 239 234 204 113 44 65 201 230 244 342 350 358 11 9 7 12 3 2 27 279 279 319 334 303 114 28 329 330 323 283 277 283 279 280 298 304 302 306 304 299 289 316 12 342 319 329 329 338 338 338 70 87 70 65 63 63 63 50 42 37 33 24 13 5
309 312 317 319 321 326 333 339 342 346 349 350 355 6 12 6 359 333 329 316 311 314 291 226 230 206 189 160 31 37 206 241 243 328 356 3 13 15 9 28 38 346 357 317 292 314 327 317 101 43 351 186 205 175 261 285 291 301 318 308 302 322 319 299 239 356 359 329 319 331 327 325 328 2 89 87 77 77 68 66 63 45 39 32 24 15 5 358
304 309 313 315 320 324 331 338 341 345 348 350 356 2 1 356 349 338 328 292 301 307 226 217 206 178 155 155 9 9 30 264 273 337 2 10 28 40 38 46 66 286 331 358 3 331 315 348 79 68 184 191 199 133 271 292 294 331 346 314 307 338 334 310 243 330 324 288 310 325 313 302 326 88 90 85 86 82 66 62 56 44 41 31 19 9 2 357
300 304 307 312 317 323 330 336 339 343 346 351 354 354 350 347 344 337 331 287 283 295 230 207 204 237 189 150 352 5 128 34 341 348 8 26 45 48 55 78 116 201 145 46 78 258 283 334 48 105 147 11 331 352 359 321 311 45 53 344 320 326 318 299 303 318 315 274 346 339 317 297 120 116 112 98 88 70 46 43 39 37 36 24 12 4 360 357
296 299 303 309 313 321 328 331 336 340 342 348 348 347 345 342 340 338 338 294 262 284 225 204 220 247 228 266 336 1 196 267 353 3 19 32 41 41 84 110 295 237 155 141 243 259 271 355 29 148 84 46 2 340 13 337 300 287 108 352 311 306 304 303 310 325 319 294 47 15 333 282 98 109 138 121 75 53 35 31 28 26 24 13 6 1 357 355
291 295 299 303 309 317 324 327 333 335 338 344 344 343 341 337 339 341 346 305 238 232 166 200 217 208 214 279 345 352 245 232 332 7 34 31 31 29 194 131 7 326 160 200 284 277 268 52 42 70 46 31 358 328 34 334 289 282 109 313 297 296 303 310 317 330 308 296 9 24 307 269 318 76 132 115 74 54 33 30 25 18 13 6 2 0 357 355
285 290 292 297 306 312 320 325 326 328 333 337 338 337 336 334 338 342 348 285 225 148 159 199 194 194 219 296 7 264 271 276 315 18 64 23 18 5 272 223 174 156 140 230 282 238 156 110 63 49 33 350 314 310 41 340 273 280 15 308 296 303 307 310 315 305 285 300 312 257 233 267 299 111 131 110 66 43 25 23 18 10 6 2 0 358 355 354
279 284 286 292 299 305 314 318 318 323 326 327 330 331 333 331 333 344 339 290 215 138 172 191 181 195 231 321 251 194 280 315 297 241 98 18 14 10 260 251 205 146 127 229 272 2 103 89 40 14 339 303 296 25 12 300 227 335 347 288 276 293 297 298 298 288 289 315 303 253 208 260 281 149 123 96 48 22 14 12 9 5 2 359 355 354 353 353
272 276 280 285 291 300 307 309 312 317 317 321 324 324 328 327 330 28 10 277 176 135 165 167 184 208 308 315 241 204 228 225 291 315 163 33 11 346 240 162 122 116 109 245 264 7 63 8 23 300 266 266 112 85 20 40 129 326 314 267 263 280 284 279 274 287 304 295 283 280 152 267 280 262 104 76 52 15 3 4 4 0 357 355 354 354 353 350
265 270 274 277 284 293 299 305 310 311 313 316 316 323 328 321 316 250 256 256 137 146 177 185 206 283 324 279 238 204 184 249 328 348 136 179 12 42 125 130 121 142 111 286 268 319 23 297 206 292 316 80 116 122 61 36 311 292 300 311 306 294 280 270 272 296 296 270 265 177 102 339 294 271 57 72 64 18 2 359 357 355 355 355 355 351 347 343
262 265 267 270 278 287 296 303 304 304 310 312 315 324 324 319 120 233 249 251 45 196 168 194 255 342 12 242 249 103 112 309 336 348 20 146 29 51 89 171 153 185 211 191 219 288 62 151 156 22 23 95 129 160 172 223 268 277 359 354 329 305 272 256 261 182 233 283 171 145 101 315 276 251 99 102 68 27 12 3 356 356 355 352 349 344 340 338
260 261 263 266 270 280 291 298 298 299 304 311 321 326 319 300 235 224 225 26 345 222 167 126 21 47 76 98 257 235 93 275 16 39 56 60 357 47 320 247 193 266 260 191 182 290 127 124 12 348 44 89 198 207 186 192 306 18 29 7 335 322 317 286 283 249 265 268 154 141 15 305 269 248 121 118 59 26 12 6 0 356 350 344 340 336 334 333
260 259 260 261 265 274 282 289 292 292 297 305 308 349 43 271 252 217 203 267 277 62 69 86 64 61 83 271 253 145 160 232 150 89 115 152 242 204 249 261 220 267 268 171 10 271 192 121 278 240 106 39 234 222 249 237 39 34 31 15 344 331 321 300 307 312 290 269 168 172 338 284 268 219 133 108 46 19 8 7 0 349 340 335 333 330 329 329
260 260 260 259 262 270 277 284 286 282 286 283 235 123 118 239 250 185 223 247 286 35 64 87 80 119 201 252 276 185 237 241 121 114 172 176 215 209 211 220 211 229 208 200 245 225 234 239 184 184 165 41 53 36 5 31 56 67 89 15 293 286 285 288 319 327 305 305 282 241 219 247 287 143 139 113 34 11 5 2 350 338 334 332 329 326 327 327
263 262 261 259 261 266 274 278 274 267 256 219 178 206 222 237 246 228 232 247 312 10 105 124 146 268 243 224 281 241 235 241 89 164 210 197 220 215 186 189 197 189 160 191 212 160 242 261 73 63 25 44 58 35 15 51 99 102 121 251 255 225 262 276 308 317 290 302 294 222 202 241 87 125 139 106 8 5 359 349 338 333 332 331 328 326 327 326
267 267 264 261 261 265 270 270 264 250 224 182 167 222 224 235 219 195 191 137 140 148 99 255 196 239 269 222 179 185 197 216 55 218 219 218 236 217 171 156 181 200 204 201 161 156 239 249 97 97 55 38 27 97 41 357 37 132 213 264 75 100 259 276 282 189 252 280 279 257 273 282 144 134 132 29 359 355 346 337 333 331 331 331 329 328 329 327
273 274 271 264 260 263 263 259 249 227 200 175 205 234 225 233 216 195 163 137 128 121 129 288 212 205 262 255 204 176 168 215 206 195 219 220 235 177 158 181 185 188 265 289 183 157 265 223 161 146 89 70 70 90 73 28 12 215 262 358 86 146 145 151 267 298 283 271 270 277 284 289 285 228 107 7 350 344 339 336 332 332 334 332 329 331 331 329
280 284 279 267 259 258 255 251 235 210 189 178 230 241 221 208 210 191 161 150 130 124 174 246 223 188 237 256 233 158 162 193 167 171 232 215 217 145 145 180 193 183 285 300 234 74 310 244 189 117 103 125 106 85 86 55 42 33 298 40 67 228 182 135 174 297 290 280 283 291 295 294 281 295 9 346 344 343 338 335 331 331 333 330 329 331 331 329
284 290 285 268 256 251 245 238 215 192 185 198 231 237 216 211 219 201 183 166 131 147 197 233 227 213 207 210 227 157 181 201 164 161 223 210 208 148 146 165 175 181 211 160 192 201 215 253 204 128 119 143 197 237 188 136 91 89 125 140 212 282 208 183 129 272 269 275 282 298 313 312 185 75 351 336 345 343 334 332 329 327 328 327 328 329 330 330
279 283 275 259 249 242 227 213 192 180 192 222 221 223 171 214 228 211 203 196 178 196 218 215 208 227 223 197 234 212 201 217 183 185 212 206 232 174 166 161 147 152 138 135 182 226 153 234 208 143 148 207 197 183 203 191 155 169 188 187 188 140 153 220 233 173 237 265 267 288 296 278 133 56 342 332 342 339 330 328 323 323 325 326 326 328 329 328
265 257 254 245 243 230 200 185 181 185 217 249 224 235 202 205 213 205 207 209 211 219 225 207 203 224 228 220 231 190 192 224 190 201 227 199 225 218 173 160 150 149 140 140 181 203 166 204 193 168 198 222 186 56 307 258 224 215 214 190 169 148 145 258 258 162 171 240 237 267 280 276 263 356 322 334 337 332 327 323 321 323 325 326 326 328 328 325
239 228 247 239 235 217 190 180 192 198 221 231 223 224 207 199 196 193 197 204 219 229 225 224 222 219 216 229 232 168 173 223 185 193 234 203 207 258 157 155 151 151 148 128 143 127 91 119 207 216 210 193 13 8 325 260 207 196 207 161 148 154 157 229 263 249 199 228 222 247 270 278 103 129 334 340 331 325 324 323 323 325 325 325 326 327 325 322
218 227 238 233 229 209 189 194 225 202 234 243 242 233 211 198 184 181 184 191 207 214 211 214 201 210 219 216 211 181 178 213 190 180 211 205 172 137 155 155 149 145 144 128 144 141 113 121 199 222 163 98 61 43 47 41 129 152 168 165 170 181 181 231 264 274 274 247 226 241 262 257 126 85 338 330 324 322 324 324 325 326 325 324 326 326 324 320
223 234 231 228 222 201 194 221 217 211 234 235 249 238 215 220 207 186 182 190 192 180 191 214 197 211 224 192 186 197 180 203 212 185 179 177 148 145 154 157 155 149 147 149 162 164 166 160 160 223 259 185 145 139 130 168 214 207 206 185 190 194 183 233 259 250 262 240 217 229 259 256 249 340 322 321 322 323 325 325 325 326 325 325 327 326 323 321
219 228 217 214 209 200 207 232 228 236 233 220 242 229 204 232 219 207 209 205 198 188 180 213 194 191 196 145 181 209 193 213 234 187 144 138 136 146 155 161 159 138 112 119 145 159 185 206 172 228 261 243 250 255 163 183 206 211 206 189 193 194 186 205 239 229 242 234 214 225 252 273 291 308 312 317 324 325 326 325 324 327 326 325 326 326 323 322
201 207 193 191 203 208 222 233 230 246 236 219 249 232 207 220 221 212 215 214 206 200 193 198 170 153 149 165 198 219 208 216 229 151 157 151 139 175 172 168 159 130 116 129 149 149 140 228 210 225 240 244 262 292 109 139 222 232 222 205 196 194 197 206 212 225 245 261 250 244 253 277 290 302 311 319 326 327 327 324 324 329 329 325 325 324 321 320
206 194 180 172 199 215 228 233 227 236 237 217 225 221 210 219 226 208 207 211 208 199 196 219 177 178 195 187 198 219 195 189 191 166 166 149 118 100 171 174 190 172 148 152 168 156 132 219 217 227 240 251 276 288 138 174 247 253 252 242 217 198 189 188 208 237 253 270 267 263 269 278 287 302 311 319 327 328 327 322 322 328 328 323 321 322 321 322
216 213 198 198 210 217 219 219 212 219 231 222 219 236 229 224 225 212 198 202 206 191 192 226 206 204 205 185 182 199 171 188 220 176 135 134 128 114 153 193 221 177 157 159 176 166 200 240 211 220 243 248 268 277 244 225 253 256 256 259 245 216 194 187 212 236 245 250 259 275 287 284 290 303 309 319 328 327 324 318 318 324 324 320 322 324 325 326
219 229 207 201 216 234 220 204 195 203 221 220 222 236 233 229 229 217 169 147 208 202 205 221 215 206 207 189 180 195 185 188 210 186 149 146 156 155 162 191 182 167 157 149 173 174 197 233 192 214 256 244 235 256 253 238 249 255 254 258 256 243 229 218 223 235 241 248 253 268 279 280 289 304 309 319 322 321 319 313 316 323 321 320 326 328 328 329
217 221 208 197 223 244 229 199 183 195 219 217 225 233 227 231 233 218 160 186 207 197 203 221 221 198 197 193 196 213 209 189 182 172 160 151 159 174 181 164 151 158 161 150 165 203 204 167 128 167 265 240 218 238 248 237 243 257 261 262 257 251 249 242 237 238 243 253 259 269 277 279 293 312 315 317 317 319 318 313 317 322 320 321 329 331 330 330
225 227 221 205 228 236 223 201 184 203 225 214 221 230 225 230 230 220 210 218 219 201 190 209 214 179 175 201 210 222 208 172 147 157 174 183 186 180 182 161 147 150 166 169 168 196 211 205 114 141 262 244 192 213 235 225 242 259 265 267 259 246 244 238 229 230 240 261 275 281 282 287 311 322 319 318 319 321 320 318 320 321 320 326 331 329 328 327
224 227 223 214 231 234 219 204 191 212 232 219 215 224 227 232 225 212 220 227 220 215 204 198 183 148 176 210 213 216 186 156 141 152 176 187 179 165 165 163 159 157 158 165 174 184 187 192 159 172 257 239 149 166 186 175 248 259 257 259 247 229 236 236 226 229 238 255 275 280 285 301 319 324 321 320 321 321 321 322 320 316 318 328 329 325 324 325